Probability
0 0 0 0 0 0 0 0 0 0 0 0 0 0 0 0 0 0 0 0 0 0 0 0 0 0 0 0 0 0 0 0 0 0 0 0 0 0 0 0 0 0 0 0
0 0 0 0 0 0 0 0 0 0 0 0 0 0 0 0 0 0 0 0 0 0 0 0 0 0 0 0 0 0 0 0 0 0 0 0 0 0 0 0 0 0 0 0
0 0 0 0 0 0 0 0 0 0 0 0 0 0 0 0 0 0 0 0 0 0 0 0 0 0 0 0 0 0 0 0 0 0 0 0 0 0 0 0 0 0 0 0
0 0 0 0 0 0 0 0 0 0 0 0 0 0 0 0 0 0 0 0 0 0 0 0 0 0 0 0 0 0 0 0 0 0 0 0 0 0 0 0 0 0 0 0
0 0 0 0 0 0 0 0 0 0 0 0 0 0 0 0 0 0 0 0 0 0 0 0 0 0 0 0 0 0 0 0 0 0 0 0 0 0 0 0 0 0 0 0
0 0 0 0 0 0 0 0 0 0 0 0 0 0 0 0 0 0 0 0 0 0 0 0 0 0 0 0 0 0 0 0 0 0 0 0 0 0 0 0 0 0 0 0
0 0 0 0 0 0 0 0 0 0 0 0 0 0 0 0 0 0 0 0 0 0 0 0 0 0 0 0 0 0 0 0 0 0 0 0 0 0 0 0 0 0 0 0
0 0 0 0 0 0 0 0 0 0 0 0 0 0 0 0 0 0 0 0 0 0 0 0 0 0 0 0 0 0 0 0 0 0 0 0 0 0 0 0 0 0 0 0
0 0 0 0 0 0 0 0 0 0 0 0 0 0 0 0 0 0 0 0 0 0 0 0 0 0 0 0 0 0 0 0 0 0 0 0 0 0 0 0 0 0 0 0
0 0 0 0 0 0 0 0 0 0 0 0 0 0 0 0 0 0 0 0 0 0 0 0 0 0 0 0 0 0 0 0 0 0 0 0 0 0 0 0 0 0 0 0
0 0 0 0 0 0 0 0 0 0 0 0 0 0 0 0 0 0 0 0 0 0 0 0 0 0 0 0 0 0 0 0 0 0 0 0 0 0 0 0 0 0 0 0
0 0 0 0 0 0 0 0 0 0 0 0 0 0 0 0 0 0 0 0 0 0 0 0 0 0 0 0 0 0 0 0 0 0 0 0 0 0 0 0 0 0 0 0
0 0 0 0 0 0 0 0 0 0 0 0 0 0 0 0 0 0 0 0 0 0 0 0 0 0 0 0 0 0 0 0 0 0 0 0 0 0 0 0 0 0 0 0
0 0 0 0 0 0 0 0 0 0 0 0 0 0 0 0 0 0 0 0 0 0 0 0 0 0 0 0 0 0 0 0 0 0 0 0 0 0 0 0 0 0 0 0
0 0 0 0 0 0 0 0 0 0 0 0 0 0 0 0 0 0 0 0 0 0 0 0 0 0 0 0 0 0 0 0 0 0 0 0 0 0 0 0 0 0 0 0
0 0 0 0 0 0 0 0 0 0 0 0 0 0 0 0 0 0 0 0 0 0 0 0 0 0 0 0 0 0 0 0 0 0 0 0 0 0 0 0 0 0 0 0
0 0 0 0 0 0 0 0 0 0 0 0 0 0 0 0 0 0 0 0 0 0 0 0 0 0 0 0 0 0 0 0 0 0 0 0 0 0 0 0 0 0 0 0
0 0 0 0 0 0 0 0 0 0 0 0 0 0 0 0 0 0 0 0 0 0 0 0 0 0 0 0 0 0 0 0 0 0 0 0 0 0 0 0 0 0 0 0
0 0 0 0 0 0 0 0 0 0 0 0 0 0 0 0 0 0 0 0 0 0 0 0 0 0 0 0 0 0 0 0 0 0 0 0 0 0 0 0 0 0 0 0
0 0 0 0 0 0 0 0 0 0 0 0 0 0 0 0 0 0 0 0 0 0 0 0 0 0 0 0 0 0 0 0 0 0 0 0 0 0 0 0 0 0 0 0
0 0 0 0 0 0 0 0 0 0 0 0 0 0 0 0 0 0 0 0 0 0 0 0 0 0 0 0 0 0 0 0 0 0 0 0 0 0 0 0 0 0 0 0
0 0 0 0 0 0 0 0 0 0 0 0 0 0 0 0 0 0 0 0 0 0 0 0 0 0 0 0 0 0 0 0 0 0 0 0 0 0 0 0 0 0 0 0
0 0 0 0 0 0 0 0 0 0 0 0 0 0 0 0 0 0 0 0 0 0 0 0 0 0 0 0 0 0 0 0 0 0 0 0 0 0 0 0 0 0 0 0
0 0 0 0 0 0 0 0 0 0 0 0 0 0 0 0 0 0 0 0 0 0 0 0 0 0 0 0 0 0 0 0 0 0 0 0 0 0 0 0 0 0 0 0
0 0 0 0 0 0 0 0 0 0 0 0 0 0 0 0 0 0 0 0 0 0 0 0 0 0 0 0 0 0 0 0 0 0 0 0 0 0 0 0 0 0 0 0
0 0 0 0 0 0 0 0 0 0 0 0 0 0 0 0 0 0 0 0 0 0 0 0 0 0 0 0 0 0 0 0 0 0 0 0 0 0 0 0 0 0 0 0
Height
5679 5682 5684 5688 5691 5694 5695 5698 5701 5704 5705 5708 5711 5714 5717 5719 5721 5724 5727 5729 5732 5734 5735 5737 5739 5741 5743 5746 5747 5749 5751 5752 5753 5754 5755 5756 5758 5759 5761 5763 5764 5766 5768 5770
5667 5670 5676 5678 5679 5681 5684 5687 5691 5693 5695 5698 5700 5703 5706 5709 5712 5715 5717 5720 5722 5725 5726 5728 5731 5733 5735 5737 5739 5741 5743 5744 5745 5746 5748 5749 5750 5752 5753 5755 5756 5758 5760 5762
5655 5662 5664 5665 5667 5670 5673 5677 5680 5682 5684 5686 5689 5692 5696 5699 5702 5705 5708 5710 5713 5715 5717 5719 5722 5724 5726 5729 5731 5732 5734 5736 5737 5738 5740 5741 5743 5744 5746 5747 5749 5750 5752 5754
5643 5648 5650 5652 5655 5658 5662 5667 5669 5670 5672 5675 5678 5680 5687 5689 5691 5695 5698 5701 5703 5706 5708 5710 5712 5715 5717 5719 5721 5723 5725 5727 5728 5730 5732 5733 5735 5736 5737 5738 5740 5742 5744 5746
5631 5635 5637 5640 5645 5648 5651 5655 5657 5659 5660 5663 5666 5669 5675 5679 5682 5685 5689 5691 5693 5696 5698 5700 5703 5705 5707 5710 5712 5714 5716 5718 5720 5722 5724 5725 5726 5728 5729 5730 5732 5734 5735 5737
5620 5623 5625 5629 5633 5636 5639 5643 5645 5646 5647 5650 5656 5658 5662 5668 5673 5676 5678 5681 5683 5685 5688 5690 5693 5695 5697 5700 5702 5705 5707 5709 5712 5714 5715 5717 5718 5720 5721 5722 5724 5726 5727 5729
5607 5610 5613 5617 5621 5624 5627 5631 5633 5634 5634 5639 5645 5645 5652 5658 5662 5665 5668 5670 5672 5675 5677 5680 5682 5685 5687 5690 5693 5695 5698 5700 5703 5705 5707 5708 5710 5711 5713 5714 5716 5717 5719 5721
5595 5598 5601 5605 5608 5612 5615 5619 5622 5624 5626 5629 5631 5634 5642 5647 5650 5653 5656 5659 5661 5664 5667 5669 5672 5674 5677 5680 5683 5685 5688 5691 5693 5695 5697 5699 5701 5702 5704 5706 5707 5708 5710 5712
5583 5586 5590 5593 5596 5600 5603 5606 5611 5613 5614 5617 5618 5624 5631 5635 5638 5642 5645 5648 5651 5653 5656 5659 5661 5664 5667 5669 5672 5675 5678 5681 5683 5686 5688 5690 5691 5693 5695 5696 5698 5699 5701 5703
5571 5574 5577 5580 5584 5587 5591 5595 5598 5600 5602 5604 5607 5612 5619 5624 5627 5630 5633 5636 5639 5642 5645 5648 5650 5653 5656 5659 5661 5664 5667 5670 5673 5675 5677 5680 5681 5683 5685 5687 5688 5690 5691 5693
5559 5562 5565 5568 5571 5575 5579 5583 5586 5588 5591 5595 5597 5603 5607 5612 5616 5619 5622 5625 5628 5631 5634 5637 5639 5642 5645 5648 5651 5654 5657 5659 5662 5665 5667 5669 5671 5673 5675 5677 5678 5679 5681 5683
5548 5551 5553 5557 5560 5563 5567 5570 5574 5577 5580 5583 5586 5593 5596 5600 5603 5607 5610 5613 5616 5619 5622 5625 5628 5631 5634 5637 5640 5643 5646 5648 5651 5654 5656 5658 5661 5663 5665 5666 5668 5669 5670 5672
5537 5540 5542 5545 5550 5552 5554 5557 5561 5564 5568 5571 5574 5582 5584 5587 5591 5594 5597 5601 5604 5607 5610 5614 5617 5620 5622 5625 5628 5631 5634 5637 5640 5642 5645 5647 5650 5652 5653 5655 5657 5658 5660 5661
5526 5528 5532 5534 5537 5539 5542 5546 5550 5553 5556 5559 5564 5569 5573 5576 5578 5581 5585 5588 5592 5596 5599 5602 5605 5608 5611 5614 5617 5620 5622 5625 5628 5631 5633 5636 5638 5640 5642 5643 5645 5647 5649 5650
5515 5517 5519 5523 5525 5528 5531 5535 5538 5541 5545 5549 5553 5557 5561 5563 5566 5569 5573 5576 5580 5584 5587 5590 5593 5596 5599 5602 5605 5608 5611 5613 5616 5619 5621 5624 5626 5628 5630 5632 5633 5635 5637 5638
5505 5507 5509 5512 5515 5517 5520 5524 5528 5531 5535 5538 5541 5545 5548 5551 5554 5557 5561 5564 5568 5572 5575 5578 5581 5584 5587 5590 5593 5596 5599 5601 5604 5606 5609 5611 5613 5615 5617 5619 5621 5623 5625 5626
5496 5498 5500 5503 5506 5507 5510 5515 5518 5521 5525 5528 5531 5535 5537 5540 5543 5546 5549 5553 5556 5560 5563 5566 5569 5572 5575 5578 5581 5584 5587 5589 5591 5594 5596 5598 5601 5603 5605 5607 5609 5611 5612 5614
5487 5489 5490 5493 5496 5498 5504 5506 5508 5511 5514 5517 5520 5523 5526 5529 5532 5535 5538 5542 5545 5548 5551 5554 5557 5560 5563 5566 5569 5572 5574 5577 5579 5581 5583 5586 5588 5590 5592 5594 5596 5598 5600 5601
5479 5481 5482 5484 5486 5488 5493 5496 5499 5501 5504 5507 5510 5513 5515 5518 5521 5524 5527 5531 5534 5537 5540 5543 5546 5549 5551 5554 5557 5559 5562 5564 5566 5569 5571 5573 5575 5577 5579 5581 5583 5585 5586 5588
5473 5474 5476 5477 5478 5480 5485 5487 5488 5492 5494 5498 5500 5502 5505 5508 5511 5515 5517 5520 5523 5526 5529 5532 5535 5538 5540 5543 5545 5548 5550 5552 5554 5556 5558 5560 5562 5564 5566 5568 5570 5571 5573 5575
5467 5467 5468 5469 5470 5472 5476 5478 5480 5484 5486 5488 5490 5492 5495 5498 5501 5504 5507 5510 5513 5516 5519 5521 5524 5527 5529 5531 5534 5536 5538 5540 5542 5544 5546 5548 5550 5551 5553 5555 5556 5558 5559 5561
5460 5461 5462 5463 5464 5467 5469 5471 5473 5474 5476 5478 5480 5483 5485 5488 5490 5493 5496 5499 5503 5505 5508 5510 5513 5515 5517 5520 5522 5524 5526 5528 5530 5532 5534 5535 5537 5538 5540 5542 5543 5544 5546 5547
5455 5456 5456 5457 5459 5460 5461 5462 5464 5466 5468 5470 5472 5474 5476 5478 5481 5483 5486 5489 5492 5495 5497 5500 5502 5504 5506 5508 5510 5512 5514 5516 5518 5520 5522 5523 5524 5526 5527 5528 5530 5531 5532 5533
5450 5450 5450 5451 5452 5453 5455 5456 5457 5458 5460 5462 5463 5465 5467 5469 5472 5474 5477 5479 5482 5485 5487 5489 5491 5493 5494 5496 5498 5500 5502 5504 5506 5508 5509 5511 5512 5513 5514 5515 5517 5518 5519 5520
5445 5445 5446 5446 5447 5448 5450 5450 5451 5452 5453 5455 5456 5458 5459 5461 5463 5466 5468 5471 5473 5475 5477 5479 5480 5482 5484 5485 5487 5489 5490 5492 5494 5495 5497 5498 5500 5501 5502 5503 5504 5505 5506 5507
5440 5440 5441 5441 5442 5443 5444 5445 5445 5446 5447 5448 5450 5451 5452 5454 5456 5458 5460 5462 5464 5466 5468 5469 5470 5472 5473 5474 5476 5477 5479 5480 5482 5483 5485 5486 5487 5489 5490 5491 5492 5493 5494 5495
Wind_Speed
40 42 42 41 41 42 42 41 40 40 40 40 40 40 39 38 37 37 37 37 38 37 36 36 35 35 34 34 33 32 32 32 32 32 32 32 31 32 32 33 35 35 35 36
41 42 41 41 42 43 43 43 41 41 41 40 40 40 40 40 39 38 37 38 39 38 38 38 37 37 36 35 35 34 33 32 32 32 33 34 33 33 33 34 36 36 36 37
41 41 41 42 43 44 44 43 42 42 42 41 41 41 40 40 39 39 38 38 39 40 40 39 38 38 37 37 36 35 34 34 33 33 34 34 34 34 34 34 34 35 37 38
42 41 41 42 43 44 45 44 43 43 43 43 42 43 40 39 39 39 39 39 39 40 40 40 40 38 38 37 36 35 35 34 34 34 34 35 34 34 34 35 35 35 36 38
40 41 41 43 42 43 44 44 45 45 45 46 44 45 42 40 40 40 39 39 39 40 40 40 40 40 39 38 37 36 35 35 35 35 35 35 34 34 35 35 35 36 36 38
40 40 41 42 42 43 44 44 44 45 45 47 45 45 45 42 40 39 40 40 39 39 40 40 40 40 40 39 38 38 37 36 35 35 36 35 35 35 35 36 36 36 36 37
39 40 41 42 42 43 44 44 44 45 46 48 46 46 45 42 40 40 40 40 40 40 40 40 40 40 40 40 40 39 38 38 37 37 37 36 35 36 36 37 37 37 37 37
39 39 41 41 42 42 43 44 44 45 46 47 47 47 44 43 41 40 40 40 41 40 41 41 41 41 40 40 41 40 40 39 38 38 38 37 37 37 37 37 38 39 38 39
37 39 40 41 42 43 43 45 44 45 45 45 47 47 45 43 41 40 40 41 41 41 41 41 42 42 42 42 41 41 40 40 40 39 39 39 38 38 38 38 38 39 40 39
36 38 39 40 41 42 43 43 43 44 46 46 47 47 45 43 41 40 40 40 40 40 41 42 42 42 42 42 42 42 42 41 40 40 40 40 40 39 39 39 39 40 41 40
36 37 37 39 40 41 42 44 44 45 47 47 47 48 46 44 42 41 40 41 41 42 42 42 42 42 42 42 42 43 43 43 42 41 41 41 41 41 40 40 41 41 41 41
36 37 36 37 39 40 41 43 43 44 45 47 47 48 47 46 44 42 41 41 41 42 43 43 42 42 42 43 43 43 43 43 43 43 42 42 42 42 41 41 42 43 43 42
35 36 36 36 37 39 40 41 42 44 44 44 45 47 47 46 44 43 42 42 41 42 42 42 42 42 42 43 44 44 44 44 44 44 43 43 43 42 42 42 42 43 43 44
34 35 36 36 36 37 39 40 41 42 43 43 42 41 43 44 44 43 42 43 42 42 42 42 42 42 42 43 43 44 44 45 45 44 44 44 44 43 43 43 43 44 44 44
33 34 35 36 35 36 38 40 41 42 42 43 42 41 40 41 43 42 42 42 42 42 42 41 42 42 42 43 43 44 44 45 45 45 45 45 45 45 44 44 45 45 45 45
32 33 34 34 34 35 36 37 40 40 39 40 41 40 40 39 41 42 42 42 42 42 42 42 42 42 42 43 43 43 43 44 45 45 45 45 45 45 45 45 46 46 46 46
30 31 32 33 34 36 35 34 35 37 38 37 38 38 39 39 39 40 41 41 42 42 42 42 42 42 42 43 43 43 43 44 45 45 45 45 45 45 45 46 46 46 47 47
28 29 29 31 33 35 34 33 33 34 36 36 36 37 38 39 38 39 39 40 40 40 40 41 41 41 42 43 43 43 44 44 45 45 45 45 44 44 45 45 46 46 48 48
25 27 28 29 31 31 32 33 32 33 33 34 34 35 36 37 37 37 37 38 38 39 39 39 40 41 41 42 43 43 43 44 45 45 45 44 45 45 45 45 46 47 48 49
21 23 26 27 28 29 29 29 30 32 33 33 34 34 34 35 37 37 37 37 37 38 38 39 40 40 41 41 42 42 43 44 45 45 44 44 45 45 46 46 46 47 48 48
19 20 22 24 25 27 27 26 26 29 30 31 33 34 35 35 36 36 37 38 37 36 37 38 39 40 41 41 41 42 42 43 43 43 44 44 45 45 46 46 46 47 48 48
17 18 20 22 23 24 24 24 25 26 28 30 31 32 33 34 34 34 35 36 36 36 36 36 37 39 40 41 41 41 42 43 42 42 43 44 44 45 46 47 47 46 47 48
17 17 18 20 21 20 21 21 21 23 26 27 29 30 31 32 32 33 34 35 35 35 35 35 36 38 39 41 41 42 42 43 42 41 42 42 43 44 44 44 44 44 45 46
15 16 16 17 16 17 18 19 19 20 22 24 25 27 28 29 30 30 31 32 32 33 34 34 35 36 37 39 40 41 42 43 43 42 42 42 42 42 43 43 43 44 44 44
15 16 16 16 16 17 18 19 20 20 20 22 23 25 26 27 28 29 29 29 30 30 31 31 32 34 36 36 37 38 39 39 40 41 41 41 41 41 42 42 43 43 43 43
15 16 17 16 16 16 15 17 18 19 19 19 21 22 24 25 26 27 27 27 28 28 29 29 30 31 32 33 33 35 36 37 37 38 39 39 40 40 40 40 41 41 42 43
Wind_Direction
253 251 251 251 251 250 250 249 249 250 250 250 249 248 247 247 248 248 247 247 247 248 248 249 249 250 250 251 252 254 255 256 256 256 254 252 252 251 250 247 246 248 248 247
252 251 251 251 250 250 249 249 249 250 250 250 249 247 247 247 247 247 247 247 247 247 249 250 250 250 251 251 252 254 255 255 255 255 255 252 252 253 252 248 247 249 250 248
253 252 250 248 248 248 248 248 249 250 250 250 250 248 247 247 247 247 247 247 247 248 249 250 250 250 251 251 252 253 254 254 254 254 255 253 254 255 253 251 250 250 249 248
252 251 249 248 248 248 247 247 249 250 250 250 250 250 246 247 247 247 247 248 248 248 249 250 250 251 250 251 252 253 253 253 253 254 254 254 255 256 255 253 251 252 249 247
251 249 248 248 247 248 248 248 249 250 251 251 250 252 248 247 247 247 248 249 249 249 249 249 250 249 249 250 250 251 252 253 253 254 254 254 254 254 254 254 253 253 251 248
250 249 248 248 247 246 246 248 249 251 252 252 250 252 250 247 247 248 248 248 249 249 249 248 248 248 248 248 249 251 252 252 253 253 254 254 255 254 253 254 253 253 252 250
249 248 248 247 247 246 245 246 249 250 250 252 251 251 251 250 248 248 248 248 248 248 248 248 249 249 249 250 250 251 251 252 252 253 253 253 254 254 254 254 254 254 252 251
250 248 247 246 246 246 245 245 247 250 252 252 252 252 251 251 250 248 248 248 248 248 248 248 249 249 249 250 250 251 250 250 252 252 253 252 253 254 255 255 256 255 254 253
251 250 248 247 246 245 244 244 245 249 252 253 253 252 251 251 251 250 249 248 248 249 249 249 249 249 249 250 250 249 249 250 251 252 253 252 253 254 255 256 257 257 255 254
252 250 248 248 246 245 244 243 243 245 248 251 253 252 251 251 251 250 249 249 248 248 249 249 249 250 249 249 249 249 249 250 251 251 252 253 253 254 255 256 258 258 256 255
252 251 249 247 245 245 245 243 243 245 247 250 252 252 251 251 251 250 250 249 249 249 249 250 250 250 250 249 249 249 249 250 250 251 252 253 253 254 256 257 257 257 256 256
253 251 248 246 245 245 245 245 244 245 247 248 251 253 251 252 251 250 249 249 249 250 250 250 250 251 250 250 249 249 249 250 251 251 252 253 254 255 256 257 257 256 256 256
254 251 250 247 245 243 243 243 243 244 245 247 249 252 251 253 252 251 250 249 249 250 250 250 250 250 250 249 249 249 249 250 251 252 252 253 254 255 256 257 257 256 256 257
253 250 248 247 247 245 244 244 243 242 243 246 248 252 252 252 253 252 250 250 250 250 250 249 249 249 249 249 249 249 249 250 251 252 252 253 254 255 256 257 257 257 257 257
252 251 248 247 247 247 246 245 243 243 244 246 247 250 250 250 250 250 250 250 250 251 251 250 250 250 249 249 249 250 250 251 251 252 253 253 254 255 256 257 257 257 257 256
250 251 248 248 248 248 247 247 245 244 245 246 247 249 250 251 250 249 249 249 249 250 250 250 250 250 250 250 250 250 251 252 253 253 254 254 254 255 256 257 257 257 256 256
252 252 250 249 248 247 246 247 247 247 245 246 247 248 249 249 249 248 247 249 250 249 249 250 250 250 250 250 250 251 252 252 253 254 254 254 254 255 256 256 257 256 256 256
254 252 252 251 249 248 249 248 247 247 246 246 247 247 248 249 249 249 248 248 248 248 248 248 249 250 250 250 250 250 251 251 252 253 254 254 254 254 255 256 256 256 256 256
256 253 253 252 250 251 250 249 248 247 246 245 246 246 247 247 247 247 246 246 246 246 247 247 248 248 248 249 250 251 251 251 251 252 253 253 253 254 254 255 256 257 257 256
259 256 255 254 251 251 252 251 248 247 247 246 246 245 245 245 246 246 245 244 245 245 247 247 249 249 249 249 250 251 252 251 251 252 253 254 253 254 254 255 256 256 256 256
263 258 256 253 253 252 251 250 248 247 247 246 246 246 246 246 248 247 246 244 246 247 248 249 249 250 250 251 252 252 252 252 253 253 253 254 254 255 255 256 257 257 257 257
267 264 259 255 254 253 251 251 248 247 246 246 246 246 247 247 248 247 247 247 248 249 250 250 251 251 250 251 253 253 253 252 254 254 255 255 256 257 257 257 258 259 259 259
266 263 261 257 254 254 250 249 248 246 246 245 246 246 248 248 248 247 248 249 250 251 251 252 252 252 251 251 251 252 253 254 255 255 256 257 258 258 258 258 258 259 260 260
264 262 260 257 252 251 247 245 247 246 246 246 247 247 247 247 247 248 249 250 252 253 253 254 254 254 253 252 251 253 253 254 255 256 257 258 259 259 258 259 259 260 261 261
260 258 259 258 254 251 247 247 249 249 248 248 248 248 248 248 247 248 250 251 253 254 254 255 256 255 255 255 254 254 254 255 256 255 256 257 258 258 258 259 260 261 260 261
257 258 258 258 254 251 247 248 251 252 253 253 252 252 251 250 249 249 249 251 252 253 254 253 254 254 254 254 254 254 254 255 256 256 256 257 257 257 258 258 259 260 261 261